Regional Weather Roundup
Issued by NWS

Home | Current Version | Previous Version | Graphics & Text | Print | Product List | Glossary On
Versions: 1 2 3 4 5 6 7 8 9 10 11 12 13 14 15 16 17 18 19 20 21 22 23 24 25 26 27 28 29 30 31 32 33 34 35 36 37 38 39 40 41 42 43 44 45 46 47 48 49 50
000
ASUS43 KMKX 211421
RWRWI

WISCONSIN REGIONAL WEATHER ROUNDUP
NATIONAL WEATHER SERVICE MILWAUKEE/SULLIVAN WI
900 AM CDT SUN SEP 21 2014

NOTE: "FAIR" INDICATES FEW OR NO CLOUDS BELOW 12,000 FEET WITH NO
SIGNIFICANT WEATHER AND/OR OBSTRUCTIONS TO VISIBILITY.

WIZ001-002-006>008-014>016-023>028-211500-
NORTHWEST WISCONSIN

CITY           SKY/WX    TMP DP  RH WIND       PRES   REMARKS
SUPERIOR ARPT  MOSUNNY   53  49  86 N7        30.04R
ASHLAND        CLOUDY    50  47  89 N10       30.02R
HAYWARD        PTSUNNY   52  48  86 N6        30.02R
SIREN          CLOUDY    52  50  94 NW6       30.05R
RICE LAKE      PTSUNNY   53  48  83 N8        30.04R
LADYSMITH      CLOUDY    51  48  89 N9        30.00R
EAU CLAIRE     PTSUNNY   56  50  80 N13G22    29.98R
MENOMONIE      PTSUNNY   56  49  77 NW17G23   30.00R
NEW RICHMOND   CLOUDY    53  51  91 N10       30.05R
OSCEOLA        CLOUDY    53  52  97 N7        30.09R
$$

WIZ003>005-009-010-017-018-211500-
NORTH CENTRAL WISCONSIN

CITY           SKY/WX    TMP DP  RH WIND       PRES   REMARKS
WOODRUFF       CLOUDY    49  44  83 N14G21    29.93R
RHINELANDER    PTSUNNY   48  44  86 N12G21    29.91R
EAGLE RIVER    CLOUDY    46  40  82 N17G25    29.92R
LAND O LAKES   CLOUDY    45  41  86 N14G23    29.93R
PHILLIPS       CLOUDY    48  46  91 N7        29.96R
TOMAHAWK       PTSUNNY   48  45  89 N5        29.93R
MEDFORD        PTSUNNY   51  48  89 N16G22    29.93R
MERRILL        CLOUDY    50  48  93 N10G18    29.90R
$$

WIZ029-030-035-036-043>047-211500-
CENTRAL WISCONSIN

CITY           SKY/WX    TMP DP  RH WIND       PRES   REMARKS
WAUSAU         LGT RAIN  53  49  86 N16G28    29.88R
MOSINEE        CLOUDY    54  54 100 MISG      29.89R
MARSHFIELD     LGT RAIN  56  53  90 N16G23    29.91R FOG
STEVENS POINT  CLOUDY    53  51  94 NW7       29.88R
WAUPACA        LGT RAIN  57  55  93 NW8       29.84R
WAUTOMA        PTSUNNY   55  54  94 NW10      29.86R
WISC RAPIDS    CLOUDY    56  53  90 NW9       29.89R
CAMP DOUGLAS   CLOUDY    54  54 100 NW13      29.91R
$$

WIZ011>013-019>022-031-037>040-048>050-211500-
NORTHEAST WISCONSIN

CITY           SKY/WX    TMP DP  RH WIND       PRES   REMARKS
ANTIGO         CLOUDY    50  48  92 N17G24    29.88R
STURGEON BAY   CLOUDY    54  48  82 N22G30    29.80R
GREEN BAY      LGT RAIN  56  53  90 N12       29.80R
MANITOWOC      LGT RAIN  57  53  86 N18G25    29.77R
APPLETON       LGT RAIN  55  54  94 N16       29.82R
CLINTONVILLE   CLOUDY    55  52  88 N10       29.85R
OSHKOSH        CLOUDY    57  54  89 NW16      29.81R
$$

WIZ032>034-041-042-053>061-211500-
SOUTHWEST WISCONSIN

CITY           SKY/WX    TMP DP  RH WIND       PRES   REMARKS
LA CROSSE      CLOUDY    57  50  77 NW13      29.94R
SPARTA         CLOUDY    55  49  79 NW9G23    29.93R
VIROQUA        CLOUDY    54  49  86 NW14      29.93R
BOSCOBEL       CLOUDY    57  49  74 VRB5      29.93R
PRAIRIE DU CHI CLOUDY    56  48  72 NW10G21   29.95R
PLATTEVILLE    CLOUDY    55  52  88 NW15G24   29.93R
$$

WIZ056-057-062-063-064-067-068-211500-
SOUTH CENTRAL WISCONSIN

CITY           SKY/WX    TMP DP  RH WIND       PRES   REMARKS
BARABOO/DELLS  CLOUDY    55  49  81 NW10G20   29.88R
LONE ROCK      CLOUDY    60  49  66 NW13      29.91R
WATERTOWN      DRIZZLE   54  54 100 NW12G18   29.83R
MADISON        CLOUDY    56  49  77 NW10G22   29.86R
MIDDLETON      CLOUDY    57  50  76 NW13G24   29.88R
MONROE         CLOUDY    55  50  82 NW18G25   29.88R
JANESVILLE     CLOUDY    59  50  72 NW13G21   29.84R
$$

WIZ051-052-058>065-066-070>072-211500-
SOUTHEAST WISCONSIN

CITY           SKY/WX    TMP DP  RH WIND       PRES   REMARKS
MILWAUKEE      DRIZZLE   56  51  84 W13G26    29.79R
WAUKESHA       DRIZZLE   52  52 100 W18G25    29.81R FOG
MILWAUKEE/TIMM CLOUDY    55  52  88 W14G23    29.79R
RACINE         CLOUDY    58  50  75 NW12G21   29.80R
BURLINGTON     CLOUDY    54  51  90 NW15G23   29.82R FOG
KENOSHA        PTSUNNY   58  51  78 W15G26    29.80R
FOND DU LAC    LGT RAIN  56  52  86 NW15      29.82R
SHEBOYGAN      CLOUDY    57  53  86 NW15      29.77R
WEST BEND      CLOUDY    55  50  82 NW13G20   29.79R
JUNEAU         CLOUDY    54  52  94 NW7       29.84R
$$

LSZ147-162-211500-
LAKE SUPERIOR

STATION/POSITION TIME  TEMP    WIND        PRES    WAVE
                       AIR SEA DIR/SP/G            HT/PER
                 (UTC) (F)     (DEG/KT/KT) (MB)    (FT/S)
W MID LAKE BUOY  1350   47 47   10/ 16/ 19 1015.9R   3/ 4
DEVILS ISLAND    1400   50     360/ 19/ 22 1017.1R
PORT WING        1300   53      10/ 15/ 18 1016.3R
SAXON HARBOR     1300   53      30/ 15/ 17 1015.2
$$

LMZ867-665-643>646-211500-
LAKE MICHIGAN

STATION/POSITION TIME  TEMP    WIND        PRES    WAVE
                       AIR SEA DIR/SP/G            HT/PER
                 (UTC) (F)     (DEG/KT/KT) (MB)    (FT/S)
N MID LAKE BUOY  1350   54 58  350/ 25/ 31 1005.6R   5/ 5
NORTHPORT PIER   1405   54     350/ 24/ 27 1008.1R
SISTER BAY       1327          360/ 25/ 35   N/A
KEWAUNEE LAKESHO 1400   55     330/  9/ 17 1007.1R
SHEBOYGAN LAKESH 1400   57 52  330/ 19/ 22 1008.2R
PORT WASHINGTON  1300   56     300/  7/ 15 1007.8R
ATWATER BUOY     1400   56     280/ 16/ 19 1009.4R
MILWAUKEE LAKESH 1400   57     290/ 12/ 17   N/A
S MID LAKE BUOY  1350   59 63  270/ 21/ 27 1007.0R   5/ 5
KENOSHA   LAKESH 1400   58     290/ 14/ 22 1008.8R
$$

TC  - TEMPERATURE IN CELSIUS
VSB - VISIBILITY IN STATUTE MILES
WCI - WIND CHILL INDEX
HX  - HEAT INDEX




USA.gov is the U.S. government's official web portal to all federal, state and local government web resources and services.